Air Force Academy, CO

5:59 PM MST on November 11, 2019 (GMT -0700)
Usaf Academy

Weather History for KAFF - May, 2019

Change the Weather History Date:

Tuesday, May 7, 2019

  Actual Average Record
Temperature  
Mean Temperature 47 °F -  
Max Temperature 51 °F 62 °F 80 °F (2011)
Min Temperature 44 °F 35 °F 23 °F (1999)
Degree Days  
Heating Degree Days 18    
Moisture  
Dew Point 45 °F    
Average Humidity 93    
Maximum Humidity 100    
Minimum Humidity 58    
Precipitation  
Precipitation 0.04 in - - ()
Sea Level Pressure  
Sea Level Pressure 29.86 in    
Wind  
Wind Speed 6 mph (SSE)    
Max Wind Speed 17 mph    
Max Gust Speed -    
Visibility 9 miles    
Events Rain , Thunderstorm    
Averages and records for this station are not official NWS values.
T = Trace of Precipitation, MM = Missing Value Source: NWS Daily Summary

Daily Weather History Graph

Daily Weather History Graph

Search for Another Location

Airport or City:

Astronomy

May. 07, 2019 Rise Set
Actual Time 5:54 AM MDT 7:57 PM MDT
Civil Twilight 5:25 AM MDT 8:26 PM MDT
Nautical Twilight 4:49 AM MDT 9:02 PM MDT
Astronomical Twilight 4:10 AM MDT 9:41 PM MDT
Moon 8:03 AM MDT (5/7) 11:00 PM MDT (5/7)
Length of Visible Light 15h 01m
Length of Day
14h 02m
Waxing Crescent, 9% of the Moon is Illuminated
May 7
Waxing Crescent
May 11
First Quarter
May 18
Full
May 26
Last Quarter
Jun 3
New

Hourly Weather History & Observations

Time (MDT) Temp. Windchill Dew Point Humidity Pressure Visibility Wind Dir Wind Speed Gust Speed Precip Events Conditions
12:13 AM 50.0 °F - 35.6 °F 58% 29.88 in 10.0 mi Calm Calm - N/A   Overcast
12:58 AM 49.6 °F - 37.2 °F 62% 29.86 in 10.0 mi Calm Calm - N/A   Overcast
1:58 AM 49.6 °F - 38.3 °F 65% 29.86 in 10.0 mi ESE 5.8 mph - N/A   Overcast
2:13 AM 48.2 °F - 39.2 °F 71% 29.88 in 10.0 mi SE 8.1 mph - N/A   Overcast
2:43 AM 48.2 °F - 41.0 °F 76% 29.88 in 10.0 mi SE 5.8 mph - N/A   Overcast
2:58 AM 48.2 °F - 41.0 °F 76% 29.86 in 10.0 mi SSE 5.8 mph - N/A   Overcast
3:43 AM 46.4 °F 44.3 °F 46.4 °F 100% 29.88 in 10.0 mi ESE 4.6 mph - N/A   Overcast
3:58 AM 46.8 °F - 46.2 °F 98% 29.88 in 10.0 mi ESE 4.6 mph - N/A   Overcast
4:00 AM 46.4 °F 43.5 °F 46.4 °F 100% 29.88 in 10.0 mi ESE 5.8 mph - N/A   Overcast
4:15 AM 46.4 °F 43.5 °F 46.4 °F 100% 29.89 in 10.0 mi SE 5.8 mph - N/A   Overcast
4:28 AM 46.4 °F 45.2 °F 46.4 °F 100% 29.88 in 8.0 mi South 3.5 mph - N/A   Light Drizzle
4:43 AM 46.4 °F - 46.4 °F 100% 29.88 in 8.0 mi Calm Calm - N/A   Light Drizzle
4:47 AM 46.4 °F - 46.4 °F 100% 29.88 in 9.0 mi Calm Calm - N/A   Overcast
4:58 AM 46.2 °F 44.1 °F 46.2 °F 100% 29.88 in 10.0 mi WSW 4.6 mph - 0.00 in   Overcast
5:13 AM 46.4 °F 45.2 °F 46.4 °F 100% 29.87 in 10.0 mi SW 3.5 mph - N/A   Overcast
5:58 AM 46.0 °F - 46.0 °F 100% 29.88 in 10.0 mi Calm Calm - N/A   Overcast
6:58 AM 46.0 °F 41.9 °F 45.9 °F 99% 29.88 in 10.0 mi SE 8.1 mph - N/A   Overcast
7:58 AM 45.1 °F 40.8 °F 45.1 °F 100% 29.93 in 1.5 mi SE 8.1 mph - N/A   Overcast
8:27 AM 44.6 °F 39.7 °F 44.6 °F 100% 29.96 in 0.8 mi SSE 9.2 mph - N/A   Light Drizzle
8:58 AM 44.6 °F 40.7 °F 44.6 °F 100% 29.96 in 0.8 mi South 6.9 mph - 0.01 in   Light Drizzle
9:58 AM 44.6 °F 39.2 °F 44.6 °F 100% 29.98 in 2.0 mi South 10.4 mph - 0.01 in   Overcast
10:13 AM 44.6 °F 39.7 °F 44.6 °F 100% 29.96 in 6.0 mi South 9.2 mph - N/A   Overcast
10:58 AM 45.9 °F 39.7 °F 45.9 °F 100% 29.93 in 7.0 mi SSE 13.8 mph - N/A   Overcast
11:13 AM 46.4 °F 40.7 °F 46.4 °F 100% 29.92 in 7.0 mi SSE 12.7 mph - N/A   Overcast
11:17 AM 46.4 °F 41.5 °F 46.4 °F 100% 29.91 in 5.0 mi SE 10.4 mph - N/A   Light Drizzle
11:27 AM 46.4 °F 41.1 °F 46.4 °F 100% 29.92 in 8.0 mi SE 11.5 mph - N/A   Overcast
11:42 AM 46.4 °F 40.4 °F 46.4 °F 100% 29.94 in 10.0 mi SSE 13.8 mph - N/A   Overcast
11:58 AM 46.8 °F - 46.6 °F 99% 29.91 in 10.0 mi SSE 12.7 mph - 0.01 in   Overcast
12:13 PM 46.4 °F 39.8 °F 46.4 °F 100% 29.90 in 10.0 mi SSE 16.1 mph - N/A   Overcast
12:58 PM 48.2 °F - 45.1 °F 89% 29.88 in 10.0 mi South 13.8 mph - N/A   Overcast
1:13 PM 48.2 °F - 44.6 °F 87% 29.86 in 10.0 mi South 17.3 mph - N/A   Overcast
1:58 PM 46.9 °F - 46.4 °F 98% 29.86 in 10.0 mi South 15.0 mph - N/A   Overcast
2:43 PM 46.4 °F 39.8 °F 46.4 °F 100% 29.84 in 10.0 mi SSE 16.1 mph - N/A   Overcast
2:58 PM 46.0 °F 39.3 °F 46.0 °F 100% 29.83 in 10.0 mi SSE 16.1 mph - N/A   Overcast
3:28 PM 48.2 °F - 46.4 °F 93% 29.82 in 10.0 mi SSE 15.0 mph - N/A   Overcast
3:58 PM 48.2 °F - 44.6 °F 87% 29.81 in 10.0 mi South 11.5 mph - N/A   Overcast
4:28 PM 48.2 °F - 44.6 °F 87% 29.80 in 10.0 mi South 9.2 mph - N/A   Overcast
4:58 PM 48.9 °F - 44.1 °F 83% 29.80 in 10.0 mi South 6.9 mph - N/A   Overcast
5:58 PM 49.8 °F - 43.5 °F 79% 29.77 in 10.0 mi SE 10.4 mph - N/A   Overcast
6:58 PM 49.3 °F - 43.0 °F 79% 29.76 in 10.0 mi East 6.9 mph - N/A   Overcast
7:58 PM 48.6 °F - 44.2 °F 85% 29.80 in 10.0 mi NW 4.6 mph - N/A   Overcast
8:13 PM 48.2 °F - 44.6 °F 87% 29.81 in 10.0 mi Calm Calm - N/A   Overcast
8:28 PM 48.2 °F - 44.6 °F 87% 29.82 in 10.0 mi North 4.6 mph - N/A   Overcast
8:38 PM 48.2 °F - 44.6 °F 87% 29.81 in 10.0 mi Calm Calm - N/A Rain Light Rain
8:53 PM 48.2 °F - 44.6 °F 87% 29.81 in 10.0 mi Calm Calm - N/A   Overcast
8:58 PM 47.5 °F - 45.3 °F 92% 29.81 in 10.0 mi Calm Calm - 0.00 in   Mostly Cloudy
9:13 PM 46.4 °F 43.5 °F 46.4 °F 100% 29.81 in 10.0 mi SSW 5.8 mph - N/A   Overcast
9:28 PM 46.4 °F 43.5 °F 46.4 °F 100% 29.81 in 10.0 mi SSE 5.8 mph - N/A   Overcast
9:39 PM 46.4 °F 42.9 °F 44.6 °F 93% 29.81 in 10.0 mi SE 6.9 mph - N/A   Overcast
9:58 PM 46.8 °F - 43.7 °F 89% 29.82 in 10.0 mi ESE 4.6 mph - N/A   Overcast
10:58 PM 46.2 °F 44.1 °F 44.1 °F 92% 29.80 in 10.0 mi South 4.6 mph - N/A   Overcast
11:00 PM 46.4 °F 44.3 °F 44.6 °F 93% 29.81 in 10.0 mi SW 4.6 mph - N/A Thunderstorm Thunderstorm
11:15 PM 46.4 °F - 46.4 °F 100% 29.81 in 10.0 mi Calm Calm - N/A   Overcast
11:22 PM 46.4 °F 45.2 °F 46.4 °F 100% 29.81 in 10.0 mi SSW 3.5 mph - N/A Rain Light Rain
11:37 PM 46.4 °F 43.5 °F 46.4 °F 100% 29.81 in 10.0 mi SSW 5.8 mph - N/A Rain Light Rain
11:52 PM 44.6 °F 42.2 °F 44.6 °F 100% 29.81 in 10.0 mi SSE 4.6 mph - N/A Rain Light Rain
11:58 PM 44.8 °F 42.4 °F 44.6 °F 99% 29.81 in 10.0 mi SSW 4.6 mph - 0.01 in Rain , Thunderstorm Light Rain